Showing default

LEMUR-2 SEJONG-3, 68482

Orbit data source: Space-Track

LEMUR-2 SEJONG-3, 68482 is a payload satellite owned by Hancom InSpace (DE) in SSO that was launched on Mon, 30 Mar 2026 UTC via an FALCON 9 launch vehicle from the Air Force Western Test Range (AFWTR). Payload-class satellites include a variety of spacecraft equipped with specific instruments for various scientific and technological missions. These include communications satellites like Starlink; space stations such as the ISS; scientific satellites like the Hubble; Earth observation satellites from companies like Planet Labs, Umbra, and HawkEye 360; GPS; miniature CubeSats for education and research; and military/defense satellites.

Loading next visibility...
Identifier
68482, 2026-067BU
Orbit
SSO
Country
Flag of DEDE / GER
Related business
Manufacturer
Spire/Glasgow
Mission
Operational spacecraft
Bus & Motor
CUBESAT 6U, Unknown motor
Mass
11 kg wet, 11 kg dry
Launch date (UTC)
2026-03-30 (3 months ago)
Launch vehicle
FALCON 9
Launch site
Air Force Western Test Range (AFWTR)
Object type
Payload
Rocket body
Debris
Shape & HBR
Unknown shape, 0.2 m
Radar Cross Section
Medium (>0.1 m² and <1 m²)

Expand to show TLE details & history
Last TLE update: 12 hours ago

TLE from 12 hours ago
0 LEMUR-2 SEJONG-3
1 68482U 26067BU  26171.34971815  .00002835  00000-0  27852-3 0  9999
2 68482  97.7568 129.6510 0001879 217.7228 142.3860 14.92951381 12202
Epoch: 2026-06-20T08:23Z
TLE epoch observation values (Epoch: 2026-06-20T08:23:35.648Z)
Latitude
Longitude
95.18686°
Altitude
592.819 km
Speed
7.563 km/s
True Right ascension
08h 38m 36s
True Declination
0° 00' 00"
Sunlit
Object was in daylight at epoch
Visualization orbit readout
Latitude
Unknown
Longitude
Unknown
Altitude
Unknown
Speed
Unknown
Apparent Right ascension
Unknown
Apparent Declination
Unknown
Sunlit
N/A
Visualization observer readout
Local Sidereal Time
07:11:58
Azimuth
Unknown
Elevation
Unknown
Doppler factor
Unknown
Orbital elements
Apogee altitude
587.064 km
Perigee altitude
584.447 km
Semi-major axis
6,963.893 km
Eccentricity
0.00019
Inclination
97.7568°
RAAN
129.651°
Arg. of periapsis
217.7228°
True anomaly
142.39914°
Mean anomaly
142.386°
Eccentric anomaly
142.39257°
Mean motion
3.73478 °/min
Orbital period
96.39 mins
BSTAR
0.00027852
Loading maneuver chart data...
Computing Atmospheric mass density...
Loading historical data...
Loading historical data...
Loading historical data...
Loading historical data...
Loading historical data...
Loading historical data...
Loading historical data...

Documentation

Showing up to 5 results
|